Location: Antioch Baptist Church
(32.6696°N, 85.7327°W)
Time: 19:56:40
(UTC+00:00)

Cosmos 1680 Rocket - Pass Details

Date: 14 July 2020
Orbit: 760 x 781 km, 74.1° (Epoch: 13 August)

Event Time Altitude Azimuth Distance (km) Brightness Sun altitude
Exits shadow 02:42:43 - 202° (SSW) 2,956 6.3 -19.8°
Reaches altitude 10° 02:44:22 10° 205° (SSW) 2,323 5.8 -20.1°
Maximum altitude 02:49:37 68° 287° (WNW) 841 3.8 -20.9°
Drops below altitude 10° 02:54:55 10° 11° (N) 2,338 6.4 -21.6°
Sets 02:57:19 0° 14° (NNE) 3,268 7.2 -22.0°
